#timestamp,LO_Frequency,Hit,StdDev 
1550376015.1,286047002.8,N
1550376035.9,286047002.7,N
1550376055.7,286047004.2,N
1550376075.6,286047003.8,N
1550376095.4,286047004.2,N
1550376115.2,286047003.9,N
1550376135.1,286047001.9,N
1550376136.0,286047001.9,N
1550376155.8,286046998.9,N
1550376175.7,286046998.1,N
1550376195.5,286046997.0,N
1550376215.3,286046996.6,N
1550376235.2,286046996.5,N
1550376255.0,286046999.2,N
1550376255.9,286046999.2,N
1550376275.8,286046998.2,N
1550376295.6,286047000.6,N
1550376315.4,286046999.7,N
1550376335.3,286047002.2,N
1550376355.1,286046998.7,N
1550376375.8,286046999.5,N
1550376395.7,286046996.5,N
1550376415.5,286046996.9,N
1550376435.4,286046996.6,N
1550376455.2,286046996.6,N
1550376475.0,286046997.1,N
1550376475.9,286046997.1,N
1550376495.8,286046998.4,N
1550376515.6,286047000.5,N
1550376535.4,286047002.4,N
1550376555.3,286047000.1,N
1550376575.1,286046999.3,N
1550376595.9,286046998.6,N
1550376615.7,286046999.0,N
1550376635.5,286047000.6,N
1550376655.4,286047004.1,N
1550376675.2,286047002.4,N
1550376695.0,286047004.3,N
1550376695.9,286047004.3,N
1550376715.8,286047000.4,N
1550376735.6,286046999.6,N
1550376755.5,286046998.5,N
1550376775.3,286046998.1,N
1550376795.1,286047000.5,N
1550376815.9,286047000.1,N
1550376835.7,286047003.6,N
1550376855.5,286047005.0,N
1550376875.4,286047007.5,Y
1550376895.2,286047004.5,P
1550376915.1,286047005.9,N
1550376916.0,286047005.9,N
1550376935.8,286047002.9,N
1550376955.6,286047005.7,N
1550377005.6,286047006.9,E
1550377015.5,286047005.9,N
1550377035.3,286046998.3,P
1550377055.2,286046998.3,N
1550377075.0,286046997.1,N
1550377075.9,286046997.1,N
1550377095.7,286046997.7,N
1550377115.6,286046997.3,N
1550377135.4,286046997.8,N
1550377155.3,286046998.0,N
1550377175.1,286046996.7,N
1550377195.8,286047001.2,N
1550377215.7,286046999.3,N
1550377235.5,286046997.1,N
1550377255.4,286046997.7,N
1550377275.2,286046997.0,N
1550377295.0,286046996.3,N
1550377295.9,286046996.3,N
1550377315.8,286046991.8,Y
1550377335.6,286046986.3,P
1550377355.5,286046992.2,N
1550377375.3,286046994.7,N
1550377395.1,286046996.4,N
1550377415.9,286046996.1,N
1550377435.7,286046997.0,N
1550377455.5,286046996.8,N
1550377475.4,286046998.3,N
1550377495.2,286046998.6,N
1550377515.1,286046998.5,N
1550377516.0,286046998.5,N
1550377535.8,286047000.7,N
1550377555.6,286047000.3,N
1550377575.5,286046999.9,N
1550377595.3,286047000.8,N
1550377615.1,286047002.4,N
1550377635.9,286046999.8,N
1550377655.7,286047002.2,N
1550377675.6,286047004.1,N
1550377695.4,286047005.3,N
1550377715.2,286047005.3,N
1550377735.1,286047002.6,N
1550377736.0,286047002.6,N
1550377755.8,286047000.1,N
1550377775.6,286047000.2,N
1550377795.5,286047002.4,N
1550377815.3,286047000.1,N
1550377835.2,286047000.2,N
1550377855.9,286047002.7,N
1550377875.7,286047001.2,N
1550377895.6,286046998.4,N
1550377915.4,286047000.8,N
1550377935.2,286047001.0,N
1550377955.1,286046998.2,N
1550377956.0,286046998.2,N
1550377975.8,286046996.9,N
1550377995.7,286046997.6,N
1550378015.5,286047011.9,Y
1550378035.3,286046997.2,P
1550378055.2,286046999.3,N
1550378075.0,286047001.2,N
1550378075.9,286047001.2,N
1550378095.8,286046998.1,N
1550378115.6,286047000.9,N
1550378135.4,286046999.4,N
1550378155.3,286047000.2,N
1550378175.1,286046999.6,N
1550378195.9,286046996.5,N
1550378215.7,286046995.4,Y
1550378235.5,286046997.8,P
1550378255.4,286046997.2,P
1550378275.2,286047000.1,N
1550378295.0,286046999.5,N
1550378295.9,286046999.5,N
1550378315.8,286046997.4,N
1550378335.6,286046997.5,N
1550378355.5,286046997.5,N
1550378375.3,286047002.7,N
1550378395.1,286046999.7,N
1550378415.9,286046998.2,N
1550378435.7,286047000.1,N
1550378455.5,286047000.4,N
1550378475.4,286047000.7,N
1550378495.2,286046998.4,N
1550378515.1,286046998.0,N
1550378516.0,286046998.0,N
1550378535.8,286046996.1,N
1550378555.6,286046995.2,Y
1550378575.5,286046998.5,P
1550378595.3,286047000.9,P
1550378615.2,286047000.9,N
1550378635.9,286046999.8,N
1550378655.7,286047000.8,N
1550378675.6,286047002.2,N
1550378695.4,286047000.0,N
1550378715.3,286046998.2,N
1550378735.1,286046996.6,N
1550378736.0,286046996.6,N
1550378755.8,286046998.0,N
1550378775.7,286046997.9,N
1550378795.5,286046996.2,N
1550378815.3,286046997.6,N
1550378835.2,286046997.8,N
1550378855.0,286046997.6,N
1550378855.9,286046997.6,N
1550378875.8,286046995.8,N
1550378895.6,286046993.3,Y
1550378915.4,286046997.1,P
1550378935.3,286046997.0,P
1550378955.1,286047001.1,N
1550378975.8,286047002.1,N
1550378995.7,286047001.5,N
1550379015.5,286046999.3,N
1550379035.4,286046997.9,N
1550379055.2,286046997.9,N
1550379075.0,286046997.6,N
1550379075.9,286046997.6,N
1550379095.8,286046999.1,N
1550379115.6,286046996.5,N
1550379135.4,286046996.7,N
1550379155.3,286046998.2,N
1550379175.1,286046997.1,N
1550379195.9,286046994.9,Y
1550379215.7,286046999.2,P
1550379235.5,286046998.6,P
1550379255.4,286047001.1,P
1550379275.2,286047000.0,N
1550379295.1,286047003.7,Y
1550379296.0,286047003.7,P
1550379315.8,286047003.1,N
1550379335.6,286046999.9,N
1550379355.5,286047000.8,N
1550379375.3,286047002.1,N
1550379395.1,286047004.2,N
1550379415.9,286047005.9,Y
1550379435.7,286047003.1,P
1550379455.6,286047003.6,P
1550379475.4,286047000.2,N
1550379495.2,286047000.8,N
1550379515.1,286046999.7,N
1550379535.2,286047001.4,N
1550379555.9,286047001.6,N
1550379575.7,286047003.9,Y
1550379595.6,286047002.2,P
